Location: Cahas Mountain Overlook
(37.0833°N, 80.1000°W)
Time: 18:52:23
(UTC-04:00)

SR - Pass Details

Date: 08 February 2026
Orbit: 572 x 849 km, 66.7° (Epoch: 13 March)

Event Time Altitude Azimuth Distance (km) Brightness Sun altitude
Rises 15:27:36 0° 341° (NNW) 3,058 ? 24.1°
Reaches altitude 10° 15:30:02 10° 350° (N) 2,184 ? 23.7°
Maximum altitude 15:34:38 36° 57° (ENE) 1,183 ? 23.0°
Drops below altitude 10° 15:39:32 10° 123° (ESE) 2,339 ? 22.3°
Sets 15:42:13 0° 131° (SE) 3,303 ? 21.9°
